Information on these data can be found in provided Readme document
Contact Info: Zachary Fasnacht (zachary.fasnacht@ssaihq.com); Nickolay Krotkov (nickolay.a.krotkov@nasa.gov); Lok Lamsal (lok.lamsal@nasa.gov)

FillValue: -999.
ScaleFactor: 1e15
Units: molecules/cm^2

Date(yyyy-mm-dd),City,Country,LonCenter,LatCenter,BoundingCoordinates,Median,Q1,Q3,Mean,Baseline_Median,Baseline_Q1,Baseline_Q3,Baseline_Mean,NumGoodSamples,NumTotalSamples
2015-01-01,Denver,USA,-104.9903,39.7392,[-105.4903 39.2392 -104.4903 40.2392],1.642,1.114,2.487,1.951,1.998,1.064,3.365,2.513,135.0,593.0
2015-01-02,Denver,USA,-104.9903,39.7392,[-105.4903 39.2392 -104.4903 40.2392],1.654,1.117,2.492,2.01,2.048,1.076,3.296,2.55,161.0,595.0
2015-01-03,Denver,USA,-104.9903,39.7392,[-105.4903 39.2392 -104.4903 40.2392],1.713,1.124,2.538,2.073,2.137,1.119,3.502,2.65,152.0,589.0
2015-01-04,Denver,USA,-104.9903,39.7392,[-105.4903 39.2392 -104.4903 40.2392],1.713,1.124,2.538,2.066,2.16,1.096,3.523,2.677,154.0,587.0
2015-01-05,Denver,USA,-104.9903,39.7392,[-105.4903 39.2392 -104.4903 40.2392],1.788,1.185,2.619,2.085,2.277,1.103,3.711,2.715,139.0,585.0
2015-01-06,Denver,USA,-104.9903,39.7392,[-105.4903 39.2392 -104.4903 40.2392],1.723,1.124,2.538,2.046,2.252,1.174,3.559,2.656,144.0,584.0
2015-01-07,Denver,USA,-104.9903,39.7392,[-105.4903 39.2392 -104.4903 40.2392],2.006,1.023,2.619,2.117,2.222,1.03,3.449,2.564,123.0,595.0
2015-01-08,Denver,USA,-104.9903,39.7392,[-105.4903 39.2392 -104.4903 40.2392],2.006,1.244,2.727,2.146,2.22,1.015,3.422,2.532,126.0,588.0
2015-01-09,Denver,USA,-104.9903,39.7392,[-105.4903 39.2392 -104.4903 40.2392],2.006,1.244,2.737,2.15,2.213,0.955,3.465,2.459,119.0,548.0
2015-01-10,Denver,USA,-104.9903,39.7392,[-105.4903 39.2392 -104.4903 40.2392],1.839,1.244,2.727,2.045,2.154,0.957,3.498,2.548,109.0,558.0
2015-01-11,Denver,USA,-104.9903,39.7392,[-105.4903 39.2392 -104.4903 40.2392],1.839,1.239,2.727,2.015,2.087,0.941,3.563,2.506,123.0,550.0
2015-01-12,Denver,USA,-104.9903,39.7392,[-105.4903 39.2392 -104.4903 40.2392],2.006,1.244,2.727,2.072,2.01,0.922,3.347,2.492,108.0,542.0
2015-01-13,Denver,USA,-104.9903,39.7392,[-105.4903 39.2392 -104.4903 40.2392],2.137,1.244,3.351,2.482,1.958,0.943,3.409,2.563,146.0,544.0
2015-01-14,Denver,USA,-104.9903,39.7392,[-105.4903 39.2392 -104.4903 40.2392],2.178,1.287,3.584,2.569,1.988,0.949,3.422,2.558,137.0,547.0
2015-01-15,Denver,USA,-104.9903,39.7392,[-105.4903 39.2392 -104.4903 40.2392],2.41,1.458,3.643,2.679,1.926,0.887,3.366,2.509,146.0,545.0
2015-01-16,Denver,USA,-104.9903,39.7392,[-105.4903 39.2392 -104.4903 40.2392],2.41,1.264,3.709,2.702,1.952,0.844,3.367,2.537,145.0,545.0
2015-01-17,Denver,USA,-104.9903,39.7392,[-105.4903 39.2392 -104.4903 40.2392],2.41,1.244,3.919,2.72,1.8,0.774,3.186,2.407,119.0,553.0
2015-01-18,Denver,USA,-104.9903,39.7392,[-105.4903 39.2392 -104.4903 40.2392],2.364,1.182,3.643,2.531,1.859,0.778,3.436,2.509,145.0,557.0
2015-01-19,Denver,USA,-104.9903,39.7392,[-105.4903 39.2392 -104.4903 40.2392],2.364,1.182,3.643,2.541,1.783,0.783,3.299,2.458,143.0,549.0
2015-01-20,Denver,USA,-104.9903,39.7392,[-105.4903 39.2392 -104.4903 40.2392],2.219,1.056,3.709,2.661,1.914,0.905,3.26,2.523,172.0,548.0
2015-01-21,Denver,USA,-104.9903,39.7392,[-105.4903 39.2392 -104.4903 40.2392],2.259,1.112,3.937,2.711,1.913,0.899,3.294,2.498,167.0,547.0
2015-01-22,Denver,USA,-104.9903,39.7392,[-105.4903 39.2392 -104.4903 40.2392],2.395,1.187,4.031,2.756,2.037,0.902,3.45,2.616,193.0,546.0
2015-01-23,Denver,USA,-104.9903,39.7392,[-105.4903 39.2392 -104.4903 40.2392],2.726,0.952,4.043,2.883,2.131,0.837,3.409,2.595,163.0,559.0
2015-01-24,Denver,USA,-104.9903,39.7392,[-105.4903 39.2392 -104.4903 40.2392],2.726,0.952,4.043,2.883,2.057,0.867,3.442,2.642,163.0,590.0
2015-01-25,Denver,USA,-104.9903,39.7392,[-105.4903 39.2392 -104.4903 40.2392],2.874,0.943,4.043,2.942,2.054,0.828,3.359,2.538,161.0,588.0
2015-01-26,Denver,USA,-104.9903,39.7392,[-105.4903 39.2392 -104.4903 40.2392],3.051,1.174,4.118,3.041,2.125,0.928,3.49,2.63,153.0,597.0
2015-01-27,Denver,USA,-104.9903,39.7392,[-105.4903 39.2392 -104.4903 40.2392],2.806,1.043,4.043,2.92,2.05,0.853,3.458,2.584,177.0,588.0
2015-01-28,Denver,USA,-104.9903,39.7392,[-105.4903 39.2392 -104.4903 40.2392],2.42,0.963,3.615,2.661,1.885,0.822,3.253,2.424,139.0,580.0
2015-01-29,Denver,USA,-104.9903,39.7392,[-105.4903 39.2392 -104.4903 40.2392],2.783,1.345,3.615,2.795,1.996,0.986,3.309,2.498,161.0,583.0
2015-01-30,Denver,USA,-104.9903,39.7392,[-105.4903 39.2392 -104.4903 40.2392],2.544,1.211,3.521,2.709,2.086,1.047,3.413,2.577,144.0,587.0
2015-01-31,Denver,USA,-104.9903,39.7392,[-105.4903 39.2392 -104.4903 40.2392],2.06,0.925,3.08,2.472,1.842,0.935,3.164,2.442,172.0,581.0
2015-02-01,Denver,USA,-104.9903,39.7392,[-105.4903 39.2392 -104.4903 40.2392],2.001,0.921,3.08,2.447,1.937,0.963,3.248,2.488,179.0,582.0
2015-02-02,Denver,USA,-104.9903,39.7392,[-105.4903 39.2392 -104.4903 40.2392],2.09,1.034,3.281,2.514,1.943,0.991,3.224,2.393,164.0,586.0
2015-02-03,Denver,USA,-104.9903,39.7392,[-105.4903 39.2392 -104.4903 40.2392],2.06,0.943,3.281,2.496,1.92,0.996,3.236,2.362,182.0,588.0
2015-02-04,Denver,USA,-104.9903,39.7392,[-105.4903 39.2392 -104.4903 40.2392],2.114,1.21,3.085,2.365,1.829,0.983,2.959,2.243,153.0,578.0
2015-02-05,Denver,USA,-104.9903,39.7392,[-105.4903 39.2392 -104.4903 40.2392],2.167,1.152,3.332,2.546,1.875,0.982,3.035,2.277,180.0,575.0
2015-02-06,Denver,USA,-104.9903,39.7392,[-105.4903 39.2392 -104.4903 40.2392],2.09,0.922,3.281,2.465,1.949,0.964,3.117,2.342,154.0,574.0
2015-02-07,Denver,USA,-104.9903,39.7392,[-105.4903 39.2392 -104.4903 40.2392],1.892,0.842,3.101,2.351,1.978,0.992,3.109,2.35,162.0,572.0
2015-02-08,Denver,USA,-104.9903,39.7392,[-105.4903 39.2392 -104.4903 40.2392],1.892,0.842,3.101,2.351,1.949,0.972,3.038,2.271,162.0,587.0
2015-02-09,Denver,USA,-104.9903,39.7392,[-105.4903 39.2392 -104.4903 40.2392],1.864,0.842,3.101,2.353,1.931,1.023,3.032,2.295,157.0,581.0
2015-02-10,Denver,USA,-104.9903,39.7392,[-105.4903 39.2392 -104.4903 40.2392],1.824,0.842,3.085,2.321,1.986,1.076,3.029,2.252,151.0,543.0
2015-02-11,Denver,USA,-104.9903,39.7392,[-105.4903 39.2392 -104.4903 40.2392],1.825,0.844,3.085,2.362,2.023,0.993,3.025,2.269,132.0,552.0
2015-02-12,Denver,USA,-104.9903,39.7392,[-105.4903 39.2392 -104.4903 40.2392],1.864,0.842,3.281,2.399,2.01,1.028,3.153,2.329,154.0,545.0
2015-02-13,Denver,USA,-104.9903,39.7392,[-105.4903 39.2392 -104.4903 40.2392],1.326,0.785,3.085,2.19,1.782,1.007,3.053,2.226,132.0,535.0
2015-02-14,Denver,USA,-104.9903,39.7392,[-105.4903 39.2392 -104.4903 40.2392],1.326,0.783,3.085,2.183,1.711,0.89,2.965,2.165,134.0,540.0
2015-02-15,Denver,USA,-104.9903,39.7392,[-105.4903 39.2392 -104.4903 40.2392],1.368,0.783,3.444,2.421,1.819,0.937,3.12,2.266,100.0,545.0
2015-02-16,Denver,USA,-104.9903,39.7392,[-105.4903 39.2392 -104.4903 40.2392],1.368,0.8,3.535,2.466,1.787,0.897,3.131,2.236,94.0,543.0
2015-02-17,Denver,USA,-104.9903,39.7392,[-105.4903 39.2392 -104.4903 40.2392],1.701,0.638,4.35,2.563,1.875,0.911,3.334,2.296,90.0,547.0
2015-02-18,Denver,USA,-104.9903,39.7392,[-105.4903 39.2392 -104.4903 40.2392],1.551,0.714,3.987,2.549,1.914,0.95,3.332,2.306,74.0,556.0
2015-02-19,Denver,USA,-104.9903,39.7392,[-105.4903 39.2392 -104.4903 40.2392],1.551,0.777,3.535,2.436,1.994,0.912,3.295,2.319,98.0,562.0
2015-02-20,Denver,USA,-104.9903,39.7392,[-105.4903 39.2392 -104.4903 40.2392],1.284,0.773,2.703,1.771,1.999,0.963,3.362,2.328,71.0,554.0
2015-02-21,Denver,USA,-104.9903,39.7392,[-105.4903 39.2392 -104.4903 40.2392],1.454,0.714,2.891,1.922,1.92,0.938,3.171,2.219,93.0,550.0
2015-02-22,Denver,USA,-104.9903,39.7392,[-105.4903 39.2392 -104.4903 40.2392],1.713,0.796,3.054,2.158,1.838,0.944,3.072,2.245,85.0,548.0
2015-02-23,Denver,USA,-104.9903,39.7392,[-105.4903 39.2392 -104.4903 40.2392],2.125,0.926,3.155,2.372,2.049,1.04,3.33,2.345,106.0,545.0
2015-02-24,Denver,USA,-104.9903,39.7392,[-105.4903 39.2392 -104.4903 40.2392],2.125,0.926,3.155,2.372,1.976,1.016,3.252,2.332,106.0,557.0
2015-02-25,Denver,USA,-104.9903,39.7392,[-105.4903 39.2392 -104.4903 40.2392],1.924,1.247,2.967,2.293,1.97,1.094,3.201,2.35,133.0,589.0
2015-02-26,Denver,USA,-104.9903,39.7392,[-105.4903 39.2392 -104.4903 40.2392],2.102,1.247,3.026,2.393,1.918,1.06,3.127,2.344,141.0,590.0
2015-02-27,Denver,USA,-104.9903,39.7392,[-105.4903 39.2392 -104.4903 40.2392],2.102,1.25,2.969,2.365,1.869,1.063,3.102,2.325,126.0,599.0
2015-02-28,Denver,USA,-104.9903,39.7392,[-105.4903 39.2392 -104.4903 40.2392],2.102,1.257,2.982,2.39,1.853,1.014,3.183,2.31,150.0,591.0
2015-03-01,Denver,USA,-104.9903,39.7392,[-105.4903 39.2392 -104.4903 40.2392],2.102,1.284,2.987,2.398,1.911,1.098,3.165,2.37,148.0,581.0
2015-03-02,Denver,USA,-104.9903,39.7392,[-105.4903 39.2392 -104.4903 40.2392],2.125,1.25,3.51,2.518,1.968,1.141,3.219,2.381,189.0,584.0
2015-03-03,Denver,USA,-104.9903,39.7392,[-105.4903 39.2392 -104.4903 40.2392],2.125,1.25,3.51,2.519,2.029,1.161,3.301,2.435,188.0,587.0
2015-03-04,Denver,USA,-104.9903,39.7392,[-105.4903 39.2392 -104.4903 40.2392],2.102,1.247,3.534,2.539,2.055,1.149,3.314,2.456,199.0,583.0
2015-03-05,Denver,USA,-104.9903,39.7392,[-105.4903 39.2392 -104.4903 40.2392],2.102,1.25,3.586,2.56,2.093,1.158,3.361,2.511,200.0,584.0
2015-03-06,Denver,USA,-104.9903,39.7392,[-105.4903 39.2392 -104.4903 40.2392],2.125,1.25,4.017,2.606,2.088,1.148,3.463,2.538,176.0,589.0
2015-03-07,Denver,USA,-104.9903,39.7392,[-105.4903 39.2392 -104.4903 40.2392],2.102,1.247,3.586,2.562,2.103,1.094,3.47,2.518,203.0,591.0
2015-03-08,Denver,USA,-104.9903,39.7392,[-105.4903 39.2392 -104.4903 40.2392],2.102,1.295,4.017,2.601,2.176,1.145,3.637,2.591,181.0,583.0
2015-03-09,Denver,USA,-104.9903,39.7392,[-105.4903 39.2392 -104.4903 40.2392],2.06,1.247,4.028,2.732,2.112,1.155,3.631,2.592,213.0,581.0
2015-03-10,Denver,USA,-104.9903,39.7392,[-105.4903 39.2392 -104.4903 40.2392],1.99,1.235,3.765,2.705,2.006,1.151,3.378,2.518,192.0,580.0
2015-03-11,Denver,USA,-104.9903,39.7392,[-105.4903 39.2392 -104.4903 40.2392],1.99,1.235,3.765,2.705,1.983,1.2,3.39,2.526,192.0,579.0
2015-03-12,Denver,USA,-104.9903,39.7392,[-105.4903 39.2392 -104.4903 40.2392],2.06,1.101,4.316,2.884,1.951,1.113,3.396,2.444,165.0,591.0
2015-03-13,Denver,USA,-104.9903,39.7392,[-105.4903 39.2392 -104.4903 40.2392],2.242,1.297,4.278,2.854,2.081,1.23,3.467,2.507,182.0,587.0
2015-03-14,Denver,USA,-104.9903,39.7392,[-105.4903 39.2392 -104.4903 40.2392],2.193,1.235,4.316,2.857,1.992,1.152,3.273,2.406,175.0,547.0
2015-03-15,Denver,USA,-104.9903,39.7392,[-105.4903 39.2392 -104.4903 40.2392],2.193,1.218,4.316,2.853,2.029,1.218,3.366,2.478,156.0,555.0
2015-03-16,Denver,USA,-104.9903,39.7392,[-105.4903 39.2392 -104.4903 40.2392],2.193,1.192,4.316,2.856,2.013,1.203,3.497,2.469,179.0,546.0
2015-03-17,Denver,USA,-104.9903,39.7392,[-105.4903 39.2392 -104.4903 40.2392],2.147,1.187,4.018,2.848,1.956,1.148,3.35,2.425,138.0,538.0
2015-03-18,Denver,USA,-104.9903,39.7392,[-105.4903 39.2392 -104.4903 40.2392],2.06,1.124,4.018,2.793,1.948,1.158,3.345,2.412,144.0,543.0
2015-03-19,Denver,USA,-104.9903,39.7392,[-105.4903 39.2392 -104.4903 40.2392],2.242,1.218,4.018,2.843,1.979,1.156,3.258,2.335,126.0,547.0
2015-03-20,Denver,USA,-104.9903,39.7392,[-105.4903 39.2392 -104.4903 40.2392],2.259,1.125,3.711,2.737,1.993,1.136,3.166,2.346,146.0,546.0
2015-03-21,Denver,USA,-104.9903,39.7392,[-105.4903 39.2392 -104.4903 40.2392],2.247,1.101,3.653,2.681,1.946,1.111,3.099,2.268,155.0,546.0
2015-03-22,Denver,USA,-104.9903,39.7392,[-105.4903 39.2392 -104.4903 40.2392],1.964,1.071,3.374,2.439,1.879,1.088,3.041,2.217,140.0,554.0
2015-03-23,Denver,USA,-104.9903,39.7392,[-105.4903 39.2392 -104.4903 40.2392],1.99,1.071,3.513,2.535,1.82,1.076,3.046,2.209,166.0,559.0
2015-03-24,Denver,USA,-104.9903,39.7392,[-105.4903 39.2392 -104.4903 40.2392],2.019,1.047,3.374,2.347,1.833,1.07,2.945,2.153,134.0,550.0
2015-03-25,Denver,USA,-104.9903,39.7392,[-105.4903 39.2392 -104.4903 40.2392],2.019,1.047,3.374,2.346,1.836,1.042,2.958,2.146,135.0,546.0
2015-03-26,Denver,USA,-104.9903,39.7392,[-105.4903 39.2392 -104.4903 40.2392],2.019,1.047,3.374,2.346,1.91,1.018,3.095,2.196,135.0,545.0
2015-03-27,Denver,USA,-104.9903,39.7392,[-105.4903 39.2392 -104.4903 40.2392],1.964,1.074,3.093,2.262,1.886,0.991,3.074,2.217,174.0,544.0
2015-03-28,Denver,USA,-104.9903,39.7392,[-105.4903 39.2392 -104.4903 40.2392],1.74,0.947,2.875,2.057,1.827,0.976,3.105,2.198,144.0,555.0
2015-03-29,Denver,USA,-104.9903,39.7392,[-105.4903 39.2392 -104.4903 40.2392],1.685,0.972,2.391,1.904,1.929,1.046,3.098,2.254,176.0,592.0
2015-03-30,Denver,USA,-104.9903,39.7392,[-105.4903 39.2392 -104.4903 40.2392],1.702,0.955,2.444,1.985,1.853,1.01,2.972,2.218,200.0,593.0
2015-03-31,Denver,USA,-104.9903,39.7392,[-105.4903 39.2392 -104.4903 40.2392],1.693,0.873,2.443,1.88,1.802,1.001,2.786,2.129,182.0,601.0
2015-04-01,Denver,USA,-104.9903,39.7392,[-105.4903 39.2392 -104.4903 40.2392],1.702,0.873,2.443,1.886,1.844,1.06,2.821,2.122,187.0,593.0
2015-04-02,Denver,USA,-104.9903,39.7392,[-105.4903 39.2392 -104.4903 40.2392],1.702,0.945,2.444,1.908,1.858,1.09,2.815,2.12,181.0,580.0
2015-04-03,Denver,USA,-104.9903,39.7392,[-105.4903 39.2392 -104.4903 40.2392],1.731,1.047,2.602,2.047,1.878,1.112,2.984,2.204,201.0,585.0
2015-04-04,Denver,USA,-104.9903,39.7392,[-105.4903 39.2392 -104.4903 40.2392],1.693,0.919,2.34,1.963,1.942,1.092,2.806,2.159,178.0,588.0
2015-04-05,Denver,USA,-104.9903,39.7392,[-105.4903 39.2392 -104.4903 40.2392],1.463,0.873,2.213,1.839,1.895,1.058,2.786,2.155,185.0,588.0
2015-04-06,Denver,USA,-104.9903,39.7392,[-105.4903 39.2392 -104.4903 40.2392],1.58,0.927,2.364,2.046,1.967,1.089,2.919,2.293,182.0,588.0
2015-04-07,Denver,USA,-104.9903,39.7392,[-105.4903 39.2392 -104.4903 40.2392],1.721,1.05,2.457,2.111,2.015,1.12,2.936,2.299,167.0,595.0
2015-04-08,Denver,USA,-104.9903,39.7392,[-105.4903 39.2392 -104.4903 40.2392],1.725,1.068,2.68,2.16,1.832,1.099,2.867,2.238,182.0,599.0
2015-04-09,Denver,USA,-104.9903,39.7392,[-105.4903 39.2392 -104.4903 40.2392],1.725,1.068,2.68,2.161,1.85,1.102,2.906,2.245,181.0,592.0
2015-04-10,Denver,USA,-104.9903,39.7392,[-105.4903 39.2392 -104.4903 40.2392],1.731,1.068,2.68,2.165,1.817,1.083,2.918,2.226,185.0,590.0
2015-04-11,Denver,USA,-104.9903,39.7392,[-105.4903 39.2392 -104.4903 40.2392],1.702,1.05,2.484,2.219,1.847,1.095,2.874,2.201,146.0,590.0
2015-04-12,Denver,USA,-104.9903,39.7392,[-105.4903 39.2392 -104.4903 40.2392],1.622,0.927,2.444,2.104,1.785,1.033,2.679,2.099,157.0,589.0
2015-04-13,Denver,USA,-104.9903,39.7392,[-105.4903 39.2392 -104.4903 40.2392],1.787,0.915,4.119,2.371,1.735,1.016,2.962,2.093,125.0,599.0
2015-04-14,Denver,USA,-104.9903,39.7392,[-105.4903 39.2392 -104.4903 40.2392],1.787,1.03,3.888,2.376,1.744,1.055,2.983,2.114,113.0,596.0
2015-04-15,Denver,USA,-104.9903,39.7392,[-105.4903 39.2392 -104.4903 40.2392],1.83,1.045,3.888,2.431,1.773,1.03,2.928,2.082,108.0,559.0
2015-04-16,Denver,USA,-104.9903,39.7392,[-105.4903 39.2392 -104.4903 40.2392],2.022,1.147,3.888,2.443,1.862,1.052,3.004,2.138,110.0,567.0
2015-04-17,Denver,USA,-104.9903,39.7392,[-105.4903 39.2392 -104.4903 40.2392],2.022,1.147,3.888,2.474,1.825,1.041,2.971,2.12,113.0,562.0
2015-04-18,Denver,USA,-104.9903,39.7392,[-105.4903 39.2392 -104.4903 40.2392],1.892,1.042,3.317,2.331,1.799,1.027,2.796,2.043,93.0,551.0
2015-04-19,Denver,USA,-104.9903,39.7392,[-105.4903 39.2392 -104.4903 40.2392],1.892,1.042,3.317,2.318,1.81,1.044,2.875,2.07,95.0,554.0
2015-04-20,Denver,USA,-104.9903,39.7392,[-105.4903 39.2392 -104.4903 40.2392],2.306,1.58,4.17,2.795,1.891,1.133,3.004,2.141,79.0,556.0
2015-04-21,Denver,USA,-104.9903,39.7392,[-105.4903 39.2392 -104.4903 40.2392],2.187,1.318,3.274,2.489,1.87,1.091,2.885,2.029,92.0,552.0
2015-04-22,Denver,USA,-104.9903,39.7392,[-105.4903 39.2392 -104.4903 40.2392],1.918,1.224,3.077,2.262,1.852,1.124,2.871,1.995,113.0,553.0
2015-04-23,Denver,USA,-104.9903,39.7392,[-105.4903 39.2392 -104.4903 40.2392],1.918,1.265,2.892,2.181,1.899,1.194,2.91,2.098,104.0,561.0
2015-04-24,Denver,USA,-104.9903,39.7392,[-105.4903 39.2392 -104.4903 40.2392],1.918,1.265,2.892,2.181,1.929,1.206,2.86,2.078,104.0,563.0
2015-04-25,Denver,USA,-104.9903,39.7392,[-105.4903 39.2392 -104.4903 40.2392],1.83,1.222,2.892,2.158,1.889,1.182,2.814,2.065,102.0,558.0
2015-04-26,Denver,USA,-104.9903,39.7392,[-105.4903 39.2392 -104.4903 40.2392],1.794,1.184,2.892,2.138,1.966,1.239,2.839,2.123,107.0,554.0
2015-04-27,Denver,USA,-104.9903,39.7392,[-105.4903 39.2392 -104.4903 40.2392],2.022,1.318,3.077,2.316,2.005,1.285,2.867,2.152,96.0,550.0
2015-04-28,Denver,USA,-104.9903,39.7392,[-105.4903 39.2392 -104.4903 40.2392],2.022,1.318,3.077,2.316,1.999,1.288,2.849,2.143,96.0,548.0
2015-04-29,Denver,USA,-104.9903,39.7392,[-105.4903 39.2392 -104.4903 40.2392],1.918,1.301,2.892,2.164,1.991,1.285,2.82,2.115,79.0,556.0
2015-04-30,Denver,USA,-104.9903,39.7392,[-105.4903 39.2392 -104.4903 40.2392],1.918,1.301,2.892,2.164,2.027,1.32,2.868,2.168,79.0,590.0
2015-05-01,Denver,USA,-104.9903,39.7392,[-105.4903 39.2392 -104.4903 40.2392],1.773,1.265,2.796,2.082,2.033,1.328,2.86,2.149,75.0,590.0
2015-05-02,Denver,USA,-104.9903,39.7392,[-105.4903 39.2392 -104.4903 40.2392],1.758,1.265,2.796,2.009,2.011,1.328,2.884,2.155,72.0,601.0
2015-05-03,Denver,USA,-104.9903,39.7392,[-105.4903 39.2392 -104.4903 40.2392],1.758,1.265,2.796,2.009,1.966,1.334,2.772,2.103,72.0,594.0
2015-05-04,Denver,USA,-104.9903,39.7392,[-105.4903 39.2392 -104.4903 40.2392],1.758,1.265,2.796,2.013,1.879,1.275,2.758,2.058,75.0,584.0
2015-05-05,Denver,USA,-104.9903,39.7392,[-105.4903 39.2392 -104.4903 40.2392],1.758,1.222,2.422,1.893,1.832,1.207,2.576,1.967,89.0,588.0
2015-05-06,Denver,USA,-104.9903,39.7392,[-105.4903 39.2392 -104.4903 40.2392],1.758,1.037,2.422,1.883,1.861,1.203,2.597,1.985,67.0,594.0
2015-05-07,Denver,USA,-104.9903,39.7392,[-105.4903 39.2392 -104.4903 40.2392],1.758,1.037,2.242,1.69,1.835,1.108,2.551,1.923,48.0,590.0
2015-05-08,Denver,USA,-104.9903,39.7392,[-105.4903 39.2392 -104.4903 40.2392],1.51,0.896,2.147,1.502,1.785,1.113,2.528,1.884,53.0,589.0
2015-05-09,Denver,USA,-104.9903,39.7392,[-105.4903 39.2392 -104.4903 40.2392],1.51,0.896,2.147,1.502,1.742,1.059,2.515,1.877,53.0,597.0
2015-05-10,Denver,USA,-104.9903,39.7392,[-105.4903 39.2392 -104.4903 40.2392],1.349,0.857,2.147,1.404,1.75,1.087,2.591,1.935,61.0,594.0
2015-05-11,Denver,USA,-104.9903,39.7392,[-105.4903 39.2392 -104.4903 40.2392],1.404,0.909,2.147,1.406,1.712,1.023,2.536,1.886,56.0,622.0
2015-05-12,Denver,USA,-104.9903,39.7392,[-105.4903 39.2392 -104.4903 40.2392],1.404,0.909,2.147,1.406,1.722,0.988,2.547,1.89,56.0,650.0
2015-05-13,Denver,USA,-104.9903,39.7392,[-105.4903 39.2392 -104.4903 40.2392],1.404,0.909,2.147,1.406,1.685,0.903,2.567,1.858,56.0,688.0
2015-05-14,Denver,USA,-104.9903,39.7392,[-105.4903 39.2392 -104.4903 40.2392],1.404,0.909,2.147,1.406,1.597,0.912,2.397,1.798,56.0,708.0
2015-05-15,Denver,USA,-104.9903,39.7392,[-105.4903 39.2392 -104.4903 40.2392],1.404,0.909,2.147,1.406,1.59,0.901,2.395,1.789,56.0,717.0
2015-05-16,Denver,USA,-104.9903,39.7392,[-105.4903 39.2392 -104.4903 40.2392],1.485,0.909,2.147,1.441,1.549,0.812,2.352,1.717,53.0,713.0
2015-05-17,Denver,USA,-104.9903,39.7392,[-105.4903 39.2392 -104.4903 40.2392],1.485,0.909,2.147,1.441,1.494,0.813,2.3,1.669,53.0,671.0
2015-05-18,Denver,USA,-104.9903,39.7392,[-105.4903 39.2392 -104.4903 40.2392],1.485,0.909,2.147,1.476,1.526,0.869,2.32,1.704,63.0,679.0
2015-05-19,Denver,USA,-104.9903,39.7392,[-105.4903 39.2392 -104.4903 40.2392],1.423,0.887,2.4,1.525,1.505,0.845,2.287,1.67,71.0,671.0
2015-05-20,Denver,USA,-104.9903,39.7392,[-105.4903 39.2392 -104.4903 40.2392],1.314,0.702,2.548,1.524,1.493,0.837,2.289,1.698,60.0,663.0
2015-05-21,Denver,USA,-104.9903,39.7392,[-105.4903 39.2392 -104.4903 40.2392],1.236,0.635,2.4,1.455,1.461,0.889,2.194,1.636,69.0,666.0
2015-05-22,Denver,USA,-104.9903,39.7392,[-105.4903 39.2392 -104.4903 40.2392],1.083,0.635,2.4,1.408,1.484,0.947,2.24,1.68,56.0,670.0
2015-05-23,Denver,USA,-104.9903,39.7392,[-105.4903 39.2392 -104.4903 40.2392],1.038,0.546,1.63,1.193,1.458,0.911,2.185,1.657,78.0,669.0
2015-05-24,Denver,USA,-104.9903,39.7392,[-105.4903 39.2392 -104.4903 40.2392],1.038,0.433,1.686,1.051,1.452,0.893,2.181,1.652,103.0,672.0
2015-05-25,Denver,USA,-104.9903,39.7392,[-105.4903 39.2392 -104.4903 40.2392],1.038,0.544,1.686,1.081,1.438,0.854,2.119,1.556,106.0,683.0
2015-05-26,Denver,USA,-104.9903,39.7392,[-105.4903 39.2392 -104.4903 40.2392],1.038,0.498,1.734,1.163,1.395,0.841,2.055,1.533,131.0,652.0
2015-05-27,Denver,USA,-104.9903,39.7392,[-105.4903 39.2392 -104.4903 40.2392],1.083,0.505,1.734,1.176,1.37,0.844,2.034,1.506,135.0,616.0
2015-05-28,Denver,USA,-104.9903,39.7392,[-105.4903 39.2392 -104.4903 40.2392],1.089,0.546,1.972,1.299,1.373,0.882,2.073,1.523,163.0,572.0
2015-05-29,Denver,USA,-104.9903,39.7392,[-105.4903 39.2392 -104.4903 40.2392],1.089,0.546,1.972,1.299,1.368,0.864,2.134,1.539,163.0,550.0
2015-05-30,Denver,USA,-104.9903,39.7392,[-105.4903 39.2392 -104.4903 40.2392],1.036,0.498,1.734,1.157,1.375,0.866,2.033,1.496,174.0,551.0
2015-05-31,Denver,USA,-104.9903,39.7392,[-105.4903 39.2392 -104.4903 40.2392],1.036,0.498,1.734,1.157,1.403,0.895,2.09,1.539,174.0,562.0
2015-06-01,Denver,USA,-104.9903,39.7392,[-105.4903 39.2392 -104.4903 40.2392],1.231,0.546,1.995,1.28,1.456,0.84,2.152,1.57,205.0,594.0
2015-06-02,Denver,USA,-104.9903,39.7392,[-105.4903 39.2392 -104.4903 40.2392],1.215,0.546,1.914,1.268,1.408,0.782,2.085,1.481,224.0,594.0
2015-06-03,Denver,USA,-104.9903,39.7392,[-105.4903 39.2392 -104.4903 40.2392],1.157,0.546,1.9,1.247,1.345,0.719,2.043,1.443,211.0,604.0
2015-06-04,Denver,USA,-104.9903,39.7392,[-105.4903 39.2392 -104.4903 40.2392],1.12,0.546,1.9,1.242,1.332,0.719,2.052,1.435,214.0,596.0
2015-06-05,Denver,USA,-104.9903,39.7392,[-105.4903 39.2392 -104.4903 40.2392],1.157,0.545,1.9,1.245,1.357,0.701,2.069,1.45,207.0,587.0
2015-06-06,Denver,USA,-104.9903,39.7392,[-105.4903 39.2392 -104.4903 40.2392],1.279,0.616,2.071,1.382,1.375,0.712,2.12,1.519,233.0,592.0
2015-06-07,Denver,USA,-104.9903,39.7392,[-105.4903 39.2392 -104.4903 40.2392],1.374,0.68,2.241,1.454,1.356,0.661,2.108,1.463,200.0,595.0
2015-06-08,Denver,USA,-104.9903,39.7392,[-105.4903 39.2392 -104.4903 40.2392],1.409,0.718,2.241,1.545,1.351,0.629,2.112,1.461,175.0,592.0
2015-06-09,Denver,USA,-104.9903,39.7392,[-105.4903 39.2392 -104.4903 40.2392],1.499,0.68,2.257,1.588,1.371,0.657,2.203,1.53,167.0,592.0
2015-06-10,Denver,USA,-104.9903,39.7392,[-105.4903 39.2392 -104.4903 40.2392],1.631,0.828,2.488,1.742,1.408,0.695,2.306,1.581,162.0,599.0
2015-06-11,Denver,USA,-104.9903,39.7392,[-105.4903 39.2392 -104.4903 40.2392],1.631,0.828,2.488,1.714,1.419,0.732,2.234,1.571,183.0,601.0
2015-06-12,Denver,USA,-104.9903,39.7392,[-105.4903 39.2392 -104.4903 40.2392],1.686,0.86,2.488,1.67,1.456,0.734,2.255,1.576,173.0,625.0
2015-06-13,Denver,USA,-104.9903,39.7392,[-105.4903 39.2392 -104.4903 40.2392],1.479,0.68,2.307,1.541,1.432,0.694,2.202,1.538,206.0,651.0
2015-06-14,Denver,USA,-104.9903,39.7392,[-105.4903 39.2392 -104.4903 40.2392],1.591,0.791,2.404,1.662,1.459,0.725,2.252,1.575,195.0,694.0
2015-06-15,Denver,USA,-104.9903,39.7392,[-105.4903 39.2392 -104.4903 40.2392],1.479,0.815,2.241,1.597,1.423,0.736,2.182,1.534,234.0,711.0
2015-06-16,Denver,USA,-104.9903,39.7392,[-105.4903 39.2392 -104.4903 40.2392],1.479,0.763,2.235,1.578,1.426,0.743,2.213,1.547,203.0,725.0
2015-06-17,Denver,USA,-104.9903,39.7392,[-105.4903 39.2392 -104.4903 40.2392],1.698,0.856,2.42,1.723,1.518,0.836,2.366,1.627,189.0,721.0
2015-06-18,Denver,USA,-104.9903,39.7392,[-105.4903 39.2392 -104.4903 40.2392],1.698,0.856,2.42,1.723,1.552,0.897,2.353,1.65,189.0,681.0
2015-06-19,Denver,USA,-104.9903,39.7392,[-105.4903 39.2392 -104.4903 40.2392],1.674,0.911,2.404,1.708,1.55,0.915,2.358,1.654,195.0,689.0
2015-06-20,Denver,USA,-104.9903,39.7392,[-105.4903 39.2392 -104.4903 40.2392],1.698,0.906,2.357,1.713,1.571,0.873,2.331,1.641,216.0,682.0
2015-06-21,Denver,USA,-104.9903,39.7392,[-105.4903 39.2392 -104.4903 40.2392],1.479,0.834,2.281,1.638,1.501,0.859,2.244,1.57,192.0,672.0